Timestamp[UTC];2m Lufttemperatur [degC] (tas);Stations-Luftdruck [Pa] (ps);relative Luftfeuchtigkeit [%] (hurs);spezifische Luftfeuchtigkeit [kg/kg] (huss);Niederschlagsmenge [mm] (pr);Windgeschwindigkeit in 2m [m/s] (sfcWind);Windrichtung [deg];maximale Windgeschwindigkeit [m/s] (wsgsmax);u-Windkomponente [m/s] (uas);v-Windkomponente [m/s] (vas);Sonneneinstrahlung [W/m2];Blitzrate [n];Blitzentfernung [km];Bodenfeuchte in 5cm Tiefe [vol%];Bodenfeuchte in 15cm Tiefe [vol%];Bodenfeuchte in 30cm Tiefe [vol%];Bodenfeuchte in 60cm Tiefe [vol%];Bodentemperatur in 5cm Tiefe [degC];Bodentemperatur in 15cm Tiefe [degC];Bodentemperatur in 30cm Tiefe [degC];Bodentemperatur in 60cm Tiefe [degC];Matrixpotential in 30cm Tiefe [kPa];Bodenfeuchte aus CRNS [vol%] (mrso);Neutronen Anzahl [N/h]
2021-05-01 00:00:00;6,6;101020;96;0,0058;0,0;1,5;247;2,6;-0,58;-1,36;0;0;0;25,6;35,6;36,2;37,2;9,7;10,1;9,9;9,3;-15,6;21,4;1363
2021-05-01 01:00:00;5,7;100995;96;0,0054;0,02;1,8;236;3,0;-0,97;-1,47;0;0;0;25,7;35,6;36,2;37,2;9,5;10,0;9,9;9,3;-15,6;21,4;1431
2021-05-01 02:00:00;5,2;100990;96;0,0052;0,02;1,9;256;6,1;-0,44;-1,87;0;0;0;25,7;35,6;36,2;37,2;9,3;9,9;9,8;9,3;-15,6;21,3;1476
2021-05-01 03:00:00;4,5;100985;96;0,005;0,0;1,7;250;2,8;-0,57;-1,55;0;0;0;25,7;35,6;36,2;37,2;9,0;9,7;9,8;9,3;-15,6;21,3;1419
2021-05-01 04:00:00;3,8;100965;95;0,0047;0,0;1,8;244;3,3;-0,74;-1,62;4;0;0;25,7;35,6;36,2;37,2;8,8;9,6;9,8;9,3;-15,6;21,1;1536
2021-05-01 05:00:00;4,1;100965;98;0,005;0,0;2,2;232;3,4;-1,33;-1,71;105;0;0;25,7;35,6;36,2;37,2;8,6;9,4;9,7;9,3;-15,7;21,2;1463
2021-05-01 06:00:00;4,9;100980;100;0,0053;0,0;2,8;231;4,4;-1,76;-2,24;231;0;0;25,7;35,6;36,2;37,2;8,4;9,3;9,7;9,3;-15,7;21,3;1481
2021-05-01 07:00:00;6,2;100965;98;0,0057;0,0;2,6;238;4,3;-1,38;-2,2;352;0;0;25,7;35,6;36,2;37,2;8,5;9,1;9,6;9,3;-15,7;21,3;1547
2021-05-01 08:00:00;7,7;100965;88;0,0057;0,0;2,8;252;5,0;-0,83;-2,69;480;0;0;25,7;35,6;36,2;37,2;8,9;9,1;9,5;9,3;-15,7;21,2;1443
2021-05-01 09:00:00;9,1;100925;72;0,0051;0,0;2,9;255;7,1;-0,22;-2,8;672;0;0;25,6;35,6;36,2;37,2;9,6;9,1;9,5;9,3;-15,7;21,2;1396
2021-05-01 10:00:00;10,2;100915;59;0,0045;0,0;3,0;252;6,6;-0,87;-2,87;708;0;0;25,5;35,5;36,1;37,2;10,4;9,4;9,4;9,3;-15,8;21,2;1384
2021-05-01 11:00:00;11,3;100900;47;0,0039;0,0;3,6;239;8,7;-1,8;-3,08;783;0;0;25,4;35,5;36,1;37,2;11,3;9,7;9,4;9,3;-15,8;21,2;1448
2021-05-01 12:00:00;11,4;100885;46;0,0038;0,0;3,5;247;6,5;-1,36;-3,27;739;0;0;25,2;35,4;36,1;37,2;12,0;10,1;9,4;9,3;-15,9;21,1;1475
2021-05-01 13:00:00;11,2;100865;46;0,0038;0,0;3,8;294;7,0;1,36;-3,2;410;0;0;25,1;35,4;36,1;37,1;12,3;10,5;9,5;9,2;-15,9;21,0;1493
2021-05-01 14:00:00;11,2;100815;48;0,004;0,0;3,1;320;5,3;2,39;-2,04;300;0;0;25,0;35,4;36,1;37,1;12,3;10,7;9,5;9,2;-15,9;21,0;1458
2021-05-01 15:00:00;11,9;100780;47;0,004;0,0;2,3;267;6,0;-0,11;-2,26;340;0;0;24,9;35,3;36,1;37,1;12,2;10,9;9,6;9,2;-16,0;21,1;1475
2021-05-01 16:00:00;11,8;100800;44;0,0038;0,0;3,7;306;6,5;2,19;-2,92;234;0;0;24,9;35,3;36,1;37,1;12,1;11,0;9,7;9,2;-16,0;21,1;1390
2021-05-01 17:00:00;11,4;100820;50;0,0041;0,0;2,8;298;5,6;1,3;-2,37;114;0;0;24,9;35,3;36,1;37,1;11,9;11,1;9,8;9,2;-16,0;21,3;1379
2021-05-01 18:00:00;10,8;100855;51;0,0041;0,0;3,7;306;6,1;2,24;-2,92;98;0;0;24,9;35,3;36,1;37,1;11,6;11,1;9,9;9,2;-16,0;21,3;1370
2021-05-01 19:00:00;9,6;100900;54;0,004;0,0;2,8;293;4,9;1,09;-2,56;14;0;0;24,9;35,3;36,1;37,1;11,2;11,0;9,9;9,2;-16,0;21,6;1450
2021-05-01 20:00:00;7,7;100960;62;0,0041;0,0;1,4;311;2,8;0,86;-1,08;0;0;0;24,9;35,3;36,1;37,1;10,8;10,9;10,0;9,2;-16,0;21,7;1388
2021-05-01 21:00:00;6,6;101015;74;0,0045;0,0;2,3;324;4,0;1,89;-1,32;0;0;0;24,9;35,3;36,0;37,1;10,4;10,8;10,1;9,2;-16,0;22,1;1392
2021-05-01 22:00:00;5,0;101030;82;0,0044;0,0;0,8;307;2,4;0,48;-0,64;0;0;0;24,9;35,3;36,0;37,1;10,0;10,6;10,1;9,3;-16,0;22,2;1414
2021-05-01 23:00:00;5,4;101050;84;0,0046;0,0;1,8;280;3,5;0,36;-1,82;0;0;0;24,9;35,3;36,0;37,1;9,7;10,4;10,1;9,3;-16,0;22,0;1458
2021-05-02 00:00:00;5,3;101060;86;0,0047;0,0;1,8;281;3,2;0,37;-1,76;0;0;0;24,9;35,2;36,0;37,1;9,4;10,2;10,1;9,3;-16,0;21,9;1422
2021-05-02 01:00:00;5,0;101080;88;0,0047;0,0;1,7;278;3,2;0,26;-1,71;0;0;0;24,9;35,2;36,0;37,1;9,2;10,0;10,0;9,3;-16,1;22,0;1468
2021-05-02 02:00:00;4,5;101080;90;0,0046;0,0;2,1;276;3,5;0,23;-2,07;0;0;0;24,9;35,2;36,0;37,1;9,0;9,8;10,0;9,4;-16,1;22,3;1432
2021-05-02 03:00:00;5,0;101115;89;0,0048;0,0;2,4;275;4,8;0,24;-2,39;0;0;0;24,9;35,2;36,0;37,1;8,8;9,7;9,9;9,4;-16,1;22,2;1413
2021-05-02 04:00:00;5,3;101130;86;0,0047;0,0;3,0;284;5,7;0,72;-2,89;0;0;0;24,9;35,2;36,0;37,1;8,7;9,5;9,9;9,4;-16,1;22,1;1413
2021-05-02 05:00:00;4,8;101205;88;0,0047;0,0;2,6;274;4,2;0,18;-2,62;42;0;0;24,9;35,2;36,0;37,1;8,6;9,4;9,8;9,4;-16,1;21,8;1436
2021-05-02 06:00:00;5,2;101240;88;0,0048;0,0;2,8;273;5,5;0,16;-2,78;137;0;0;24,9;35,2;36,0;37,1;8,6;9,3;9,7;9,4;-16,1;21,7;1371
2021-05-02 07:00:00;6,9;101270;80;0,0049;0,0;4,0;291;7,6;1,55;-3,7;266;0;0;24,9;35,2;36,0;37,1;8,6;9,2;9,7;9,4;-16,1;21,5;1448
2021-05-02 08:00:00;8,0;101295;68;0,0045;0,0;4,8;294;8,9;2,04;-4,28;368;0;0;24,9;35,2;36,0;37,1;8,9;9,2;9,6;9,4;-16,1;21,5;1260
2021-05-02 09:00:00;8,8;101300;60;0,0042;0,0;5,1;301;10,0;2,65;-4,39;479;0;0;24,8;35,2;36,0;37,1;9,2;9,2;9,6;9,4;-16,2;21,3;1331
2021-05-02 10:00:00;9,3;101305;54;0,0039;0,0;5,4;286;10,1;1,5;-5,18;479;0;0;24,7;35,1;36,0;37,1;9,7;9,3;9,5;9,4;-16,2;21,2;1431
2021-05-02 11:00:00;9,3;101330;50;0,0036;0,0;4,7;284;8,4;1,2;-4,55;286;0;0;24,6;35,1;36,0;37,1;10,0;9,4;9,5;9,3;-16,2;21,2;1421
2021-05-02 12:00:00;9,0;101385;54;0,0038;0,0;4,5;286;8,4;1,25;-4,16;290;0;0;24,5;35,1;36,0;37,1;10,0;9,5;9,5;9,3;-16,3;21,3;1390
2021-05-02 13:00:00;9,8;101370;52;0,0039;0,0;5,3;307;10,0;3,22;-4,21;483;0;0;24,4;35,0;36,0;37,1;10,2;9,6;9,5;9,3;-16,3;21,3;1286
2021-05-02 14:00:00;9,6;101380;53;0,0039;0,0;5,2;303;10,0;2,88;-4,34;365;0;0;24,4;35,0;36,0;37,1;10,4;9,7;9,5;9,3;-16,3;21,3;1427
2021-05-02 15:00:00;10,0;101385;52;0,004;0,0;4,7;310;9,1;3,02;-3,54;324;0;0;24,3;35,0;36,0;37,1;10,6;9,9;9,5;9,3;-16,4;21,3;1450
2021-05-02 16:00:00;9,6;101427;53;0,0039;0,0;5,1;317;8,9;3,75;-3,46;211;0;0;24,2;34,9;36,0;37,1;10,6;10,0;9,5;9,3;-16,4;21,3;1450
2021-05-02 17:00:00;9,7;101430;54;0,004;0,0;4,7;313;7,3;3,25;-3,44;238;0;0;24,2;34,9;35,9;37,1;10,5;10,1;9,5;9,3;-16,4;21,3;1364
2021-05-02 18:00:00;8,6;101470;55;0,0038;0,0;3,6;316;6,7;2,58;-2,46;61;0;0;24,2;34,9;35,9;37,0;10,2;10,1;9,6;9,3;-16,4;21,2;1401
2021-05-02 19:00:00;7,3;101540;60;0,0038;0,0;1,8;291;3,4;0,7;-1,61;5;0;0;24,2;34,9;35,9;37,0;10,0;10,1;9,6;9,2;-16,4;21,1;1397
2021-05-02 20:00:00;6,1;101590;64;0,0037;0,0;1,4;276;2,6;0,16;-1,44;0;0;0;24,2;34,9;35,9;37,0;9,6;10,0;9,6;9,2;-16,4;21,4;1405
2021-05-02 21:00:00;4,6;101655;70;0,0037;0,0;1,1;260;2,0;-0,16;-0,6;0;0;0;24,2;34,9;35,9;37,0;9,3;9,8;9,6;9,2;-16,4;21,1;1352
2021-05-02 22:00:00;3,7;101700;75;0,0037;0,0;1,1;248;1,9;-0,41;-1,03;0;0;0;24,2;34,9;35,9;37,0;8,9;9,7;9,6;9,2;-16,4;20,9;1356
2021-05-02 23:00:00;3,4;101725;79;0,0038;0,0;1,0;242;1,7;-0,45;-0,86;0;0;0;24,3;34,9;35,9;37,0;8,6;9,5;9,6;9,3;-16,4;21,0;1360
2021-05-03 00:00:00;2,4;101720;85;0,0038;0,0;1,1;193;2,1;-1,08;-0,26;0;0;0;24,3;34,9;35,9;37,0;8,3;9,3;9,6;9,2;-16,4;20,8;1347
2021-05-03 01:00:00;2,0;101715;88;0,0038;0,0;1,4;188;2,0;-1,35;-0,2;0;0;0;24,3;34,9;35,9;37,0;8,0;9,2;9,6;9,3;-16,4;20,8;1374
2021-05-03 02:00:00;2,1;101730;89;0,0039;0,0;1,7;185;2,6;-1,69;-0,17;0;0;0;24,3;34,9;35,9;37,0;7,8;9,0;9,5;9,3;-16,4;20,5;1355
2021-05-03 03:00:00;1,8;101700;89;0,0038;0,0;2,3;176;3,4;-2,31;0,14;0;0;0;24,3;34,9;35,9;37,0;7,6;8,9;9,4;9,3;-16,4;20,5;1376
2021-05-03 04:00:00;1,8;101665;90;0,0038;0,0;3,1;184;4,4;-3,06;-0,28;20;0;0;24,3;34,9;35,9;37,0;7,5;8,7;9,4;9,3;-16,4;20,5;1363
2021-05-03 05:00:00;3,4;101640;88;0,0042;0,0;4,0;188;6,0;-3,98;-0,57;106;0;0;24,3;34,9;35,9;37,0;7,3;8,6;9,3;9,2;-16,4;20,7;1391
2021-05-03 06:00:00;5,2;101585;82;0,0045;0,0;4,3;194;6,2;-4,11;-1,11;178;0;0;24,3;34,8;35,9;37,0;7,3;8,4;9,2;9,2;-16,5;20,7;1369
2021-05-03 07:00:00;6,7;101560;74;0,0045;0,0;4,9;203;7,4;-4,51;-2,0;301;0;0;24,3;34,8;35,9;37,0;7,5;8,4;9,2;9,2;-16,5;20,8;1288
2021-05-03 08:00:00;8,9;101520;62;0,0043;0,0;5,6;208;9,1;-4,85;-2,72;454;0;0;24,2;34,8;35,9;37,0;7,8;8,3;9,1;9,2;-16,5;20,8;1407
2021-05-03 09:00:00;11,1;101470;52;0,0043;0,0;6,1;215;9,6;-4,96;-3,52;623;0;0;24,1;34,8;35,9;37,0;8,4;8,4;9,0;9,2;-16,6;20,8;1379
2021-05-03 10:00:00;12,4;101410;47;0,0041;0,0;5,8;226;10,1;-4,0;-4,16;546;0;0;23,9;34,7;35,9;37,0;9,0;8,6;9,0;9,2;-16,6;20,9;1415
2021-05-03 11:00:00;12,4;101350;45;0,004;0,0;5,2;227;9,2;-3,48;-3,82;417;0;0;23,7;34,7;35,9;37,0;9,6;8,8;8,9;9,1;-16,7;20,9;1510
2021-05-03 12:00:00;12,6;101300;44;0,0039;0,0;5,7;208;9,5;-5,02;-2,68;404;0;0;23,6;34,6;35,9;37,0;9,9;9,0;8,9;9,1;-16,7;20,9;1378
2021-05-03 13:00:00;12,6;101240;42;0,0037;0,0;4,6;216;9,2;-3,54;-2,6;318;0;0;23,5;34,6;35,9;37,0;10,1;9,2;8,9;9,1;-16,8;nan;1410
2021-05-03 14:00:00;13,4;101125;38;0,0037;0,0;5,3;214;8,7;-4,32;-2,94;345;0;0;23,3;34,5;35,8;37,0;10,2;9,4;9,0;9,1;-16,8;nan;1406
2021-05-03 15:00:00;13,8;101000;36;0,0035;0,0;6,2;208;10,7;-5,44;-2,89;324;0;0;23,2;34,5;35,8;37,0;10,3;9,5;9,0;9,0;-16,8;nan;1451
2021-05-03 16:00:00;13,5;100910;36;0,0034;0,0;5,8;210;10,3;-4,99;-2,9;187;0;0;23,1;34,4;35,8;37,0;10,4;9,6;9,1;9,0;-16,8;20,9;1509
2021-05-03 17:00:00;13,6;100810;37;0,0035;0,0;5,6;210;10,0;-4,82;-2,8;151;0;0;23,1;34,4;35,8;37,0;10,4;9,7;9,1;9,0;-16,8;21,1;1473
2021-05-03 18:00:00;12,7;100735;42;0,0039;0,0;5,4;194;9,0;-5,27;-1,3;35;0;0;23,0;34,4;35,8;37,0;10,2;9,8;9,2;9,0;-16,9;21,4;1521
2021-05-03 19:00:00;12,0;100630;47;0,0041;0,0;4,6;178;7,2;-4,6;0,1;1;0;0;23,0;34,4;35,8;37,0;10,0;9,8;9,3;9,0;-16,9;21,6;1483
2021-05-03 20:00:00;11,6;100520;49;0,0041;0,0;4,8;172;7,3;-4,78;0,67;0;0;0;23,0;34,4;35,8;37,0;9,9;9,8;9,3;9,0;-16,9;21,7;1444
2021-05-03 21:00:00;11,5;100360;50;0,0042;0,0;6,2;170;9,6;-6,16;1,01;0;0;0;23,0;34,4;35,8;37,0;9,7;9,7;9,3;9,0;-16,8;22,0;1507
2021-05-03 22:00:00;11,6;100140;48;0,0041;0,0;7,4;172;11,7;-7,38;1,0;0;0;0;23,0;34,4;35,8;37,0;9,5;9,7;9,4;9,0;-16,8;22,0;1544
2021-05-03 23:00:00;11,8;99915;48;0,0041;0,0;7,7;174;12,7;-7,66;0,74;0;0;0;23,0;34,4;35,8;36,9;9,4;9,6;9,4;9,0;-16,8;21,9;1569
2021-05-04 00:00:00;12,1;99750;46;0,0041;0,0;6,7;178;11,9;-6,72;0,14;0;0;0;23,0;34,3;35,7;36,9;9,3;9,6;9,4;9,0;-16,8;22,2;1552
2021-05-04 01:00:00;12,0;99625;48;0,0043;0,0;9,7;205;18,1;-8,72;-4,21;0;0;0;23,0;34,3;35,7;36,9;9,3;9,5;9,4;9,0;-16,8;22,3;1585
2021-05-04 02:00:00;8,9;99535;76;0,0054;0,68;8,3;202;14,0;-7,58;-3,2;0;0;0;23,0;34,3;35,7;36,9;9,2;9,4;9,4;9,0;-16,8;22,7;1581
2021-05-04 03:00:00;8,0;99415;85;0,0057;0,29;8,9;194;14,2;-8,62;-2,1;0;0;0;23,0;34,3;35,7;36,9;9,1;9,4;9,4;9,0;-16,8;23,3;1617
2021-05-04 04:00:00;7,8;99300;84;0,0056;0,0;9,7;190;15,6;-9,54;-1,84;1;0;0;23,0;34,3;35,7;36,9;9,0;9,3;9,4;9,0;-16,8;23,5;1506
2021-05-04 05:00:00;8,1;99235;83;0,0056;0,0;9,4;195;14,5;-9,04;-2,48;16;0;0;23,0;34,3;35,7;36,9;8,9;9,3;9,3;9,1;-16,8;23,8;1533
2021-05-04 06:00:00;8,3;99180;86;0,006;0,31;9,0;202;15,5;-8,38;-3,4;42;0;0;23,1;34,3;35,7;36,9;8,8;9,2;9,3;9,1;-16,8;24,2;1537
2021-05-04 07:00:00;8,2;99155;90;0,0062;3,54;7,6;215;14,1;-6,3;-4,2;56;0;0;23,1;34,3;35,7;36,9;8,8;9,2;9,3;9,1;-16,8;24,6;1566
2021-05-04 08:00:00;7,8;99140;98;0,0065;0,53;7,7;209;12,9;-6,7;-3,74;129;0;0;23,4;34,3;35,7;36,9;8,8;9,1;9,3;9,1;-16,8;24,9;1534
2021-05-04 09:00:00;8,4;99120;96;0,0067;0,22;8,8;212;15,7;-7,4;-4,82;174;0;0;23,6;34,3;35,7;36,9;8,9;9,1;9,3;9,1;-16,8;25,1;1602
2021-05-04 10:00:00;9,6;99090;89;0,0067;0,17;8,8;230;15,0;-5,68;-6,76;350;0;0;23,8;34,3;35,7;36,9;9,1;9,1;9,2;9,1;-16,8;25,0;1591
2021-05-04 11:00:00;9,1;99220;84;0,0061;0,45;10,1;246;17,7;-4,07;-9,2;213;0;0;23,9;34,3;35,7;36,9;9,4;9,2;9,2;9,1;-16,9;25,3;1489
2021-05-04 12:00:00;9,1;99300;83;0,006;0,2;9,0;251;15,6;-2,84;-8,48;295;0;0;24,0;34,3;35,7;36,9;9,4;9,2;9,2;9,1;-16,9;25,6;1559
2021-05-04 13:00:00;9,2;99330;82;0,006;0,24;8,8;238;14,5;-4,55;-7,52;340;0;0;24,1;34,3;35,7;36,9;9,5;9,3;9,2;9,1;-16,9;25,6;1423
2021-05-04 14:00:00;11,2;99330;66;0,0055;0,02;10,1;240;17,4;-5,12;-8,72;380;0;0;24,2;34,3;35,7;36,9;9,6;9,3;9,2;9,0;-16,9;25,9;1483
2021-05-04 15:00:00;10,2;99390;70;0,0055;0,02;9,9;242;18,8;-4,62;-8,78;345;0;0;24,3;34,3;35,7;36,9;9,8;9,4;9,2;9,0;-17,0;26,1;1454
2021-05-04 16:00:00;10,6;99440;68;0,0054;0,0;8,4;248;15,9;-3,06;-7,86;162;0;0;24,4;34,3;35,7;36,9;9,8;9,5;9,2;9,0;-17,0;26,4;1499
2021-05-04 17:00:00;8,9;99495;75;0,0054;0,27;6,5;263;14,0;-0,59;-6,46;89;0;0;24,5;34,3;35,6;36,9;9,7;9,5;9,2;9,0;-16,9;26,5;1444
2021-05-04 18:00:00;8,6;99515;78;0,0054;0,25;6,6;262;12,8;-0,94;-6,49;48;0;0;24,6;34,7;35,6;36,9;9,6;9,5;9,2;9,0;-16,9;26,4;1509
2021-05-04 19:00:00;7,6;99600;81;0,0053;0,27;7,1;249;13,5;-2,43;-6,68;2;0;0;24,6;34,3;35,6;36,9;9,4;9,5;9,3;9,0;-17,0;26,2;1443
2021-05-04 20:00:00;7,2;99645;84;0,0053;0,0;5,2;233;8,9;-3,06;-4,2;0;0;0;24,7;34,3;35,6;36,9;9,1;9,4;9,3;9,0;-16,9;26,3;1438
2021-05-04 21:00:00;7,7;99630;81;0,0053;0,0;6,0;231;10,5;-3,81;-4,71;0;0;0;24,9;34,3;35,6;36,9;8,9;9,3;9,3;9,0;-16,9;26,3;1616
2021-05-04 22:00:00;7,6;99635;77;0,005;0,0;6,7;236;11,6;-3,75;-5,53;0;0;0;25,0;34,7;35,6;36,9;8,7;9,2;9,3;9,0;-16,9;26,5;1463
2021-05-04 23:00:00;7,2;99635;79;0,005;0,0;5,8;241;9,7;-2,8;-5,11;0;0;0;25,1;34,3;35,6;36,9;8,6;9,1;9,2;9,0;-16,9;26,8;1492
2021-05-05 00:00:00;6,5;99640;84;0,0051;0,2;5,9;246;9,7;-2,44;-5,34;0;0;0;25,2;34,3;35,6;36,9;8,4;9,0;9,2;9,0;-16,9;26,9;1543
2021-05-05 01:00:00;6,0;99640;84;0,0049;0,02;5,8;247;9,9;-2,27;-5,37;0;0;0;25,3;34,3;35,6;36,9;8,3;9,0;9,2;9,0;-16,9;26,9;1461
2021-05-05 02:00:00;5,8;99625;86;0,005;0,0;5,4;238;9,4;-2,84;-4,58;0;0;0;25,4;34,3;35,6;36,9;8,2;8,9;9,2;9,0;-16,9;26,6;1495
2021-05-05 03:00:00;5,2;99635;90;0,005;0,75;5,6;238;11,0;-2,92;-4,67;0;0;0;25,5;34,3;35,6;36,9;8,0;8,8;9,1;9,0;-16,9;26,5;1490
2021-05-05 04:00:00;4,4;99665;94;0,005;0,33;4,6;237;7,8;-2,44;-3,86;4;0;0;25,6;34,3;35,6;36,9;7,9;8,7;9,1;9,0;-16,9;26,3;1432
2021-05-05 05:00:00;4,4;99710;95;0,005;0,29;4,8;250;8,5;-1,6;-4,5;22;0;0;25,7;34,4;35,6;36,9;7,8;8,6;9,1;9,0;-16,9;26,3;1515
2021-05-05 06:00:00;5,0;99755;90;0,0049;0,0;5,4;244;9,2;-2,33;-4,83;50;0;0;25,8;34,4;35,6;36,9;7,7;8,5;9,0;9,0;-17,0;26,3;1555
2021-05-05 07:00:00;5,6;99795;88;0,005;0,0;6,2;247;10,0;-2,33;-5,71;219;0;0;26,0;34,4;35,6;36,9;7,7;8,4;8,9;9,0;-17,0;26,6;1469
2021-05-05 08:00:00;6,2;99810;90;0,0053;0,61;6,5;254;12,2;-1,74;-6,18;355;0;0;26,1;34,4;35,6;36,9;7,9;8,4;8,9;9,0;-17,0;26,4;1474
2021-05-05 09:00:00;7,0;99840;88;0,0055;0,0;7,3;251;12,7;-2,31;-6,96;513;0;0;26,3;34,4;35,6;36,9;8,2;8,4;8,9;9,0;-17,0;26,2;1481
2021-05-05 10:00:00;7,4;99895;84;0,0053;0,29;8,4;270;13,2;-0,03;-8,35;406;0;0;26,4;34,4;35,6;36,9;8,5;8,5;8,8;8,9;-17,0;26,4;1392
2021-05-05 11:00:00;6,8;100020;86;0,0053;0,02;7,5;261;12,2;-1,02;-7,3;466;0;0;26,6;34,4;35,6;36,9;8,8;8,6;8,8;8,9;-17,0;26,1;1408
2021-05-05 12:00:00;8,0;100120;81;0,0054;0,0;8,0;266;13,7;-0,57;-7,98;487;0;0;26,8;34,4;35,6;36,9;9,1;8,7;8,8;8,9;-17,0;26,1;1478
2021-05-05 13:00:00;8,5;100230;73;0,005;0,0;8,6;276;17,4;0,84;-8,48;530;0;0;26,9;34,4;35,6;36,9;9,4;8,8;8,8;8,9;-17,1;26,1;1435
2021-05-05 14:00:00;9,1;100280;69;0,005;0,0;7,6;288;14,6;2,39;-7,2;579;0;0;27,0;35,1;35,6;36,9;9,6;9,0;8,8;8,9;-17,1;26,0;1418
2021-05-05 15:00:00;9,1;100340;64;0,0046;0,0;7,7;284;13,5;1,94;-7,44;364;0;0;27,1;34,4;35,6;36,9;9,9;9,1;8,8;8,9;-17,1;26,1;1454
2021-05-05 16:00:00;9,0;100395;59;0,0042;0,0;6,1;281;11,0;1,18;-5,95;250;0;0;27,1;34,4;35,6;36,9;9,9;9,2;8,8;8,9;-17,2;26,2;1404
2021-05-05 17:00:00;9,0;100405;56;0,004;0,0;5,6;276;10,5;0,67;-5,6;246;0;0;27,2;34,4;35,5;36,9;9,8;9,3;8,9;8,8;-17,2;26,1;1383
2021-05-05 18:00:00;8,4;100430;59;0,004;0,0;3,5;278;5,6;0,49;-3,45;79;0;0;27,2;34,4;35,5;36,8;9,6;9,3;8,9;8,8;-17,2;26,1;1309
2021-05-05 19:00:00;7,4;100450;64;0,0041;0,0;2,2;274;5,1;0,22;-2,24;16;0;0;27,3;34,4;35,5;36,8;9,3;9,3;9,0;8,8;-17,2;26,4;1426
2021-05-05 20:00:00;6,0;100500;72;0,0041;0,0;1,5;239;2,8;-0,74;-1,27;0;0;0;27,3;34,4;35,5;36,8;9,0;9,2;9,0;8,8;-17,2;26,6;1412
2021-05-05 21:00:00;4,8;100500;77;0,0041;0,0;0,9;226;1,7;-0,59;-0,41;0;0;0;27,4;34,5;35,5;36,8;8,7;9,1;9,0;8,8;-17,2;26,9;1457
2021-05-05 22:00:00;4,7;100480;78;0,0041;0,0;1,2;171;2,1;-1,21;0,19;0;0;0;27,4;34,5;35,5;36,8;8,4;9,0;9,0;8,8;-17,1;26,8;1484
2021-05-05 23:00:00;5,2;100465;78;0,0043;0,0;3,6;212;5,9;-3,03;-1,94;0;0;0;27,5;34,5;35,5;36,8;8,2;8,9;9,0;8,8;-17,1;26,6;1412
2021-05-06 00:00:00;5,1;100415;84;0,0046;0,63;3,3;211;6,2;-2,55;-1,62;0;0;0;27,5;34,5;35,5;36,8;8,0;8,8;9,0;8,8;-17,1;26,5;1445
2021-05-06 01:00:00;4,0;100380;92;0,0047;0,19;2,5;219;5,0;-1,66;-1,72;0;0;0;27,5;34,5;35,5;36,8;7,9;8,7;9,0;8,8;-17,1;26,6;1424
2021-05-06 02:00:00;4,2;100325;93;0,0048;0,16;1,1;222;2,4;-0,64;-0,5;0;0;0;27,6;34,5;35,5;36,8;7,8;8,6;8,9;8,8;-17,1;26,5;1390
2021-05-06 03:00:00;4,5;100300;93;0,0049;0,0;2,1;246;5,0;-0,85;-1,9;0;0;0;27,7;34,5;35,4;36,8;7,7;8,5;8,9;8,8;-17,1;26,6;1369
2021-05-06 04:00:00;4,4;100295;94;0,0049;0,02;1,4;302;2,9;0,65;-1,17;1;0;0;27,7;34,6;35,4;36,8;7,7;8,4;8,8;8,8;-17,1;26,7;1396
2021-05-06 05:00:00;4,6;100315;94;0,0049;0,0;2,4;262;4,0;-0,32;-2,33;30;0;0;27,8;34,6;35,4;36,8;7,6;8,4;8,8;8,8;-17,1;26,8;1421
2021-05-06 06:00:00;5,2;100300;94;0,0052;0,0;2,9;247;5,0;-1,09;-2,66;119;0;0;27,8;34,6;35,4;36,8;7,6;8,3;8,8;8,8;-17,2;26,5;1382
2021-05-06 07:00:00;5,7;100280;91;0,0052;0,0;4,0;241;6,5;-1,92;-3,5;220;0;0;27,9;34,6;35,4;36,8;7,7;8,2;8,7;8,8;-17,2;26,3;1334
2021-05-06 08:00:00;6,4;100280;88;0,0053;0,0;3,4;222;5,7;-2,52;-2,27;391;0;0;27,9;34,6;35,4;36,8;8,0;8,2;8,7;8,8;-17,2;26,3;1336
2021-05-06 09:00:00;7,6;100240;78;0,0051;0,0;2,6;247;5,4;-1,06;-2,23;496;0;0;27,9;35,0;35,4;36,8;8,4;8,3;8,7;8,8;-17,2;26,5;1450
2021-05-06 10:00:00;8,0;100230;72;0,0049;0,12;2,2;216;5,3;-1,82;-1,28;352;0;0;27,9;34,6;35,4;36,8;9,1;8,5;8,6;8,8;-17,2;26,6;1424
2021-05-06 11:00:00;8,4;100170;72;0,0049;0,0;1,9;164;3,9;-1,8;0,49;436;0;0;27,9;34,6;35,4;36,8;9,5;8,7;8,6;8,8;-17,2;26,7;1419
2021-05-06 12:00:00;8,9;100130;64;0,0046;0,0;2,4;188;6,6;-2,35;-0,44;408;0;0;27,9;34,6;35,4;36,8;9,8;8,9;8,6;8,7;-17,2;26,9;1424
2021-05-06 13:00:00;9,6;100055;64;0,0047;0,0;1,7;96;3,9;-0,05;1,25;348;0;0;27,9;34,6;35,4;36,8;10,2;9,1;8,7;8,7;-17,2;27,2;1486
2021-05-06 14:00:00;10,3;99985;60;0,0046;0,0;1,3;116;3,3;-0,57;1,14;378;0;0;27,9;35,0;35,4;36,8;10,5;9,3;8,7;8,7;-17,2;27,0;1419
2021-05-06 15:00:00;8,8;99950;70;0,005;0,0;4,4;336;8,1;3,86;-1,76;290;0;0;27,9;34,6;35,3;36,8;10,7;9,5;8,8;8,7;-17,2;26,9;1441
2021-05-06 16:00:00;8,5;99950;72;0,005;0,0;3,6;0;6,1;3,61;0,03;215;0;0;27,9;34,6;35,3;36,8;10,8;9,7;8,8;8,7;-17,2;26,6;1408
2021-05-06 17:00:00;8,6;99975;70;0,0049;0,0;2,6;180;4,5;2,64;-0,01;139;0;0;27,9;34,7;35,3;36,8;10,7;9,9;8,9;8,7;-17,2;26,5;1499
2021-05-06 18:00:00;8,5;100010;72;0,0049;0,0;1,7;346;2,9;1,64;-0,34;52;0;0;27,9;34,7;35,3;36,8;10,5;9,9;9,0;8,7;-17,2;26,4;1423
2021-05-06 19:00:00;8,0;100105;76;0,0051;0,0;2,1;226;5,6;0,53;-1,4;2;0;0;28,0;34,7;35,3;36,8;10,3;9,9;9,1;8,7;-17,2;26,2;1437
2021-05-06 20:00:00;6,3;100190;83;0,0049;0,34;3,6;300;6,5;1,83;-3,11;0;0;0;28,0;34,7;35,3;36,8;10,1;9,9;9,1;8,7;-17,2;26,1;1390
2021-05-06 21:00:00;6,0;100225;80;0,0046;0,77;3,0;271;8,1;0,48;-2,84;0;0;0;28,0;34,7;35,3;36,8;9,8;9,8;9,2;8,7;-17,2;26,0;1450
2021-05-06 22:00:00;5,5;100250;86;0,0049;0,02;2,5;208;3,8;-2,13;-1,18;0;0;0;28,0;34,7;35,3;36,8;9,5;9,7;9,2;8,7;-17,2;26,0;1432
2021-05-06 23:00:00;5,3;100310;88;0,0049;0,0;3,1;242;5,0;-1,44;-2,73;0;0;0;28,0;34,8;35,3;36,8;9,3;9,6;9,2;8,8;-17,2;26,1;1372
2021-05-07 00:00:00;5,2;100350;88;0,0048;0,0;3,5;253;8,1;-0,99;-3,39;0;0;0;28,1;34,8;35,3;36,8;9,0;9,5;9,2;8,8;-17,2;26,0;1355
2021-05-07 01:00:00;4,5;100375;90;0,0047;0,0;2,8;260;4,4;-0,44;-2,8;0;0;0;28,1;34,8;35,3;36,8;8,8;9,3;9,2;8,8;-17,2;26,1;1471
2021-05-07 02:00:00;3,3;100415;92;0,0044;0,0;1,9;240;3,2;-0,96;-1,66;0;0;0;28,1;34,8;35,3;36,8;8,5;9,2;9,2;8,8;-17,2;26,1;1451
2021-05-07 03:00:00;3,1;100455;92;0,0044;0,0;1,8;232;2,9;-1,08;-1,4;0;0;0;28,1;34,8;35,3;36,8;8,3;9,1;9,2;8,8;-17,2;25,9;1437
2021-05-07 04:00:00;3,3;100500;94;0,0045;0,0;2,0;207;3,1;-1,79;-0,92;2;0;0;28,2;34,8;35,3;36,8;8,1;8,9;9,2;8,8;-17,2;25,9;1416
2021-05-07 05:00:00;3,5;100580;94;0,0046;0,73;1,9;286;4,5;0,66;-1,5;5;0;0;28,2;34,8;35,3;36,8;7,9;8,8;9,1;8,8;-17,2;25,8;1446
2021-05-07 06:00:00;2,4;100685;94;0,0042;2,56;2,0;310;4,4;1,34;-1,48;28;0;0;28,4;34,8;35,3;36,8;7,8;8,7;9,1;8,9;-17,2;25,9;1396
2021-05-07 07:00:00;2,9;100705;97;0,0045;0,03;2,2;236;3,8;-0,97;-1,76;311;0;0;28,8;34,9;35,3;36,8;7,6;8,5;9,0;8,9;-17,2;25,9;1330
2021-05-07 08:00:00;4,8;100770;95;0,0051;0,0;2,9;268;5,1;-0,08;-2,86;472;0;0;29,3;34,9;35,3;36,8;7,9;8,5;9,0;8,9;-17,2;25,9;1333
2021-05-07 09:00:00;6,4;100860;86;0,0051;0,0;3,6;272;6,9;0,12;-3,56;426;0;0;29,6;34,9;35,3;36,8;8,3;8,5;8,9;8,9;-17,2;26,0;1353
2021-05-07 10:00:00;8,0;100955;73;0,0048;0,0;4,5;292;8,5;1,74;-4,14;569;0;0;29,7;34,9;35,3;36,8;8,9;8,6;8,9;8,9;-17,2;25,9;1317
2021-05-07 11:00:00;9,2;101025;64;0,0046;0,0;4,2;266;7,8;-0,22;-4,2;617;0;0;29,8;34,9;35,4;36,8;9,6;8,8;8,8;8,8;-17,2;25,8;1353
2021-05-07 12:00:00;9,4;101100;67;0,0049;0,0;4,1;261;7,6;-0,65;-4,03;335;0;0;29,8;34,9;35,4;36,8;10,2;9,0;8,8;8,8;-17,3;25,5;1291
2021-05-07 13:00:00;9,8;101140;65;0,0049;0,0;4,2;251;9,1;-1,37;-3,99;268;0;0;29,9;34,9;35,4;36,8;10,3;9,2;8,8;8,8;-17,3;25,3;1347
2021-05-07 14:00:00;10,9;101155;58;0,0047;0,0;4,7;264;8,9;-0,5;-4,69;500;0;0;29,9;34,9;35,4;36,8;10,5;9,4;8,9;8,8;-17,3;25,5;1348
2021-05-07 15:00:00;11,7;101185;50;0,0043;0,0;5,4;269;9,4;-0,06;-5,36;597;0;0;29,8;34,9;35,4;36,8;10,8;9,6;8,9;8,8;-17,4;25,8;1322
2021-05-07 16:00:00;11,8;101210;50;0,0042;0,0;4,9;266;8,0;-0,3;-4,85;439;0;0;29,8;34,9;35,4;36,8;11,0;9,8;8,9;8,8;-17,4;25,7;1328
2021-05-07 17:00:00;11,4;101230;50;0,0041;0,0;4,5;271;7,8;0,09;-4,5;304;0;0;29,8;34,9;35,4;36,8;11,0;10,0;9,0;8,8;-17,4;25,7;1331
2021-05-07 18:00:00;10,7;101265;54;0,0042;0,0;4,1;277;7,9;0,56;-4,07;173;0;0;29,8;34,9;35,4;36,8;10,9;10,1;9,1;8,8;-17,4;25,8;1296
2021-05-07 19:00:00;9,3;101310;55;0,0039;0,0;2,2;280;4,7;0,42;-2,14;34;0;0;29,8;34,9;35,4;36,8;10,6;10,1;9,2;8,8;-17,4;25,7;1314
2021-05-07 20:00:00;7,6;101370;60;0,0039;0,0;1,0;272;2,3;0,04;-1,03;0;0;0;29,8;35,0;35,4;36,8;10,2;10,1;9,2;8,8;-17,4;25,4;1257
2021-05-07 21:00:00;6,4;101410;70;0,0041;0,0;1,4;258;2,7;-0,27;-1,35;0;0;0;29,8;35,0;35,4;36,8;9,7;9,9;9,3;8,8;-17,4;25,3;1355
2021-05-07 22:00:00;6,1;101420;71;0,0041;0,0;0,8;270;2,2;0,0;-0,85;0;0;0;29,8;35,0;35,4;36,8;9,4;9,8;9,3;8,8;-17,4;25,2;1329
2021-05-07 23:00:00;4,8;101415;77;0,0041;0,0;0,6;92;1,2;-0,08;0,54;0;0;0;29,8;35,0;35,4;36,8;9,0;9,6;9,3;8,8;-17,4;25,1;1371
2021-05-08 00:00:00;2,7;101430;86;0,0039;0,0;0,8;138;1,6;-0,59;0,55;0;0;0;29,7;35,1;35,4;36,8;8,6;9,4;9,3;8,8;-17,3;25,0;1307
2021-05-08 01:00:00;2,4;101390;88;0,0039;0,0;1,3;150;1,8;-1,12;0,66;0;0;0;29,7;35,1;35,4;36,8;8,3;9,2;9,3;8,9;-17,3;24,9;1278
2021-05-08 02:00:00;3,0;101360;84;0,0039;0,0;2,4;160;3,4;-2,25;0,8;0;0;0;29,7;35,1;35,4;36,8;8,0;9,1;9,3;8,9;-17,4;25,1;1246
2021-05-08 03:00:00;4,2;101265;83;0,0042;0,0;2,2;148;3,4;-1,87;1,16;0;0;0;29,7;35,1;35,4;36,8;7,8;8,9;9,2;8,9;-17,3;25,1;1399
2021-05-08 04:00:00;4,1;101220;82;0,0041;0,0;1,5;150;2,3;-1,32;0,74;20;0;0;29,7;35,2;35,4;36,8;7,7;8,7;9,2;8,9;-17,3;25,0;1315
2021-05-08 05:00:00;5,8;101185;79;0,0045;0,0;2,7;155;5,0;-2,41;1,14;130;0;0;29,7;35,2;35,4;36,8;7,6;8,6;9,1;8,9;-17,3;24,9;1343
2021-05-08 06:00:00;6,7;101170;79;0,0048;0,0;4,1;158;6,2;-3,79;1,53;216;0;0;29,7;35,2;35,4;36,8;7,6;8,5;9,1;8,9;-17,3;24,8;1356
2021-05-08 07:00:00;7,5;101150;77;0,0049;0,0;4,1;158;6,1;-3,77;1,48;201;0;0;29,6;35,2;35,4;36,7;7,7;8,4;9,0;8,9;-17,3;nan;1354
2021-05-08 08:00:00;9,1;101080;72;0,0051;0,0;4,5;164;6,6;-4,38;1,15;282;0;0;29,6;35,2;35,4;36,7;7,9;8,4;8,9;8,9;-17,3;nan;1420
2021-05-08 09:00:00;10,8;100990;66;0,0053;0,0;5,4;166;8,3;-5,2;1,28;418;0;0;29,5;35,2;35,4;36,7;8,2;8,4;8,9;8,9;-17,3;nan;1387
2021-05-08 10:00:00;12,4;100930;61;0,0054;0,0;5,5;170;9,5;-5,42;0,91;406;0;0;29,4;35,2;35,4;36,7;8,6;8,5;8,8;8,9;-17,3;nan;1364
2021-05-08 11:00:00;12,8;100865;56;0,0052;0,0;6,0;178;10,2;-5,96;0,14;296;0;0;29,3;35,2;35,4;36,7;9,1;8,7;8,8;8,9;-17,4;nan;1436
2021-05-08 12:00:00;11,6;100800;66;0,0056;0,36;5,6;176;10,7;-5,52;0,24;173;0;0;29,3;35,2;35,4;36,7;9,3;8,8;8,8;8,9;-17,3;nan;1424